Time,TemperatureF,DewpointF,PressureIn,WindDirection,WindDirectionDegrees,WindSpeedMPH,WindSpeedGustMPH,Humidity,HourlyPrecipIn,Conditions,Clouds,dailyrainin,SoftwareType,DateUTC
2013-01-27 00:02:00,43.5,25.6,30.06,North,1,0.0,0.0,49,0.00,CLR,OVC,0.00,WeatherDisplay:10.37,2013-01-27 06:02:00,
2013-01-27 00:07:00,43.3,26.4,30.05,North,1,0.0,0.0,51,0.00,CLR,OVC,0.00,WeatherDisplay:10.37,2013-01-27 06:07:00,
2013-01-27 00:12:00,43.3,26.4,30.05,North,1,0.0,0.0,51,0.00,CLR,OVC,0.00,WeatherDisplay:10.37,2013-01-27 06:12:00,
2013-01-27 00:17:00,43.2,26.2,30.05,North,1,0.0,0.0,51,0.00,CLR,OVC,0.00,WeatherDisplay:10.37,2013-01-27 06:17:00,
2013-01-27 00:22:00,43.0,27.0,30.05,North,1,0.0,0.0,53,0.00,CLR,OVC,0.00,WeatherDisplay:10.37,2013-01-27 06:22:00,
2013-01-27 00:27:00,42.8,26.8,30.05,North,1,0.0,0.0,53,0.00,CLR,OVC,0.00,WeatherDisplay:10.37,2013-01-27 06:27:00,
2013-01-27 00:32:00,42.8,27.3,30.04,North,1,0.0,0.0,54,0.00,CLR,OVC,0.00,WeatherDisplay:10.37,2013-01-27 06:32:00,
2013-01-27 00:37:00,42.4,27.4,30.04,North,1,0.0,0.0,55,0.00,CLR,OVC,0.00,WeatherDisplay:10.37,2013-01-27 06:37:00,
2013-01-27 00:42:00,42.1,27.9,30.03,North,1,0.0,0.0,57,0.00,CLR,OVC,0.00,WeatherDisplay:10.37,2013-01-27 06:42:00,
2013-01-27 00:47:00,41.7,27.6,30.03,North,1,0.0,0.0,57,0.00,CLR,OVC,0.00,WeatherDisplay:10.37,2013-01-27 06:47:00,
2013-01-27 00:52:00,41.5,27.8,30.03,North,1,0.0,0.0,58,0.00,CLR,OVC,0.00,WeatherDisplay:10.37,2013-01-27 06:52:00,
2013-01-27 00:57:00,41.2,27.9,30.03,North,1,0.0,0.0,59,0.00,CLR,OVC,0.00,WeatherDisplay:10.37,2013-01-27 06:57:00,
2013-01-27 01:02:00,41.2,27.9,30.03,North,1,0.0,0.0,59,0.00,CLR,OVC,0.00,WeatherDisplay:10.37,2013-01-27 07:02:00,
2013-01-27 01:07:00,40.6,28.6,30.03,North,1,0.0,0.0,62,0.00,CLR,OVC,0.00,WeatherDisplay:10.37,2013-01-27 07:07:00,
2013-01-27 01:13:00,40.6,28.6,30.03,North,1,0.0,0.0,62,0.00,CLR,OVC,0.00,WeatherDisplay:10.37,2013-01-27 07:13:00,
2013-01-27 01:18:00,40.5,29.2,30.03,North,1,0.0,0.0,64,0.00,CLR,OVC,0.00,WeatherDisplay:10.37,2013-01-27 07:18:00,
2013-01-27 01:23:00,40.1,28.9,30.03,North,1,0.0,0.0,64,0.00,CLR,OVC,0.00,WeatherDisplay:10.37,2013-01-27 07:23:00,
2013-01-27 01:28:00,39.9,29.1,30.02,North,1,0.0,0.0,65,0.00,CLR,OVC,0.00,WeatherDisplay:10.37,2013-01-27 07:28:00,
2013-01-27 01:33:00,39.9,29.5,30.02,North,1,0.0,0.0,66,0.00,CLR,OVC,0.00,WeatherDisplay:10.37,2013-01-27 07:33:00,
2013-01-27 01:38:00,39.6,29.1,30.02,North,1,0.0,0.0,66,0.00,CLR,OVC,0.00,WeatherDisplay:10.37,2013-01-27 07:38:00,
2013-01-27 01:43:00,39.4,29.3,30.02,North,1,0.0,0.0,67,0.00,CLR,OVC,0.00,WeatherDisplay:10.37,2013-01-27 07:43:00,
2013-01-27 01:48:00,39.4,29.3,30.02,North,1,0.0,0.0,67,0.00,CLR,OVC,0.00,WeatherDisplay:10.37,2013-01-27 07:48:00,
2013-01-27 01:53:00,39.0,29.3,30.02,North,1,0.0,0.0,68,0.00,CLR,OVC,0.00,WeatherDisplay:10.37,2013-01-27 07:53:00,
2013-01-27 01:58:00,39.0,29.7,30.02,North,1,0.0,0.0,69,0.00,CLR,OVC,0.00,WeatherDisplay:10.37,2013-01-27 07:58:00,
2013-01-27 02:03:00,39.0,29.7,30.01,North,1,0.0,0.0,69,0.00,CLR,OVC,0.00,WeatherDisplay:10.37,2013-01-27 08:03:00,
2013-01-27 02:08:00,38.8,29.9,30.01,North,1,0.0,0.0,70,0.00,CLR,OVC,0.00,WeatherDisplay:10.37,2013-01-27 08:08:00,
2013-01-27 02:13:00,38.8,29.9,30.02,North,1,0.0,0.0,70,0.00,CLR,OVC,0.00,WeatherDisplay:10.37,2013-01-27 08:13:00,
2013-01-27 02:18:00,38.8,30.2,30.02,North,1,0.0,0.0,71,0.00,CLR,OVC,0.00,WeatherDisplay:10.37,2013-01-27 08:18:00,
2013-01-27 02:23:00,38.8,30.2,30.02,North,1,0.0,0.0,71,0.00,CLR,OVC,0.00,WeatherDisplay:10.37,2013-01-27 08:23:00,
2013-01-27 02:28:00,38.8,30.6,30.02,North,1,0.0,0.0,72,0.00,CLR,OVC,0.00,WeatherDisplay:10.37,2013-01-27 08:28:00,
2013-01-27 02:33:00,38.8,30.6,30.01,North,1,0.0,0.0,72,0.00,CLR,OVC,0.00,WeatherDisplay:10.37,2013-01-27 08:33:00,
2013-01-27 02:38:00,38.8,30.6,30.01,North,1,0.0,0.0,72,0.00,CLR,OVC,0.00,WeatherDisplay:10.37,2013-01-27 08:38:00,
2013-01-27 02:43:00,38.8,30.6,30.01,North,1,0.0,0.0,72,0.00,CLR,OVC,0.00,WeatherDisplay:10.37,2013-01-27 08:43:00,
2013-01-27 02:48:00,38.8,30.6,29.99,North,1,0.0,0.0,72,0.00,CLR,OVC,0.00,WeatherDisplay:10.37,2013-01-27 08:48:00,
2013-01-27 02:53:00,38.8,30.6,29.99,North,1,0.0,0.0,72,0.00,CLR,OVC,0.00,WeatherDisplay:10.37,2013-01-27 08:53:00,
2013-01-27 02:58:00,38.8,30.6,29.99,North,1,0.0,0.0,72,0.00,CLR,OVC,0.00,WeatherDisplay:10.37,2013-01-27 08:58:00,
2013-01-27 03:03:00,38.8,30.6,29.99,North,1,0.0,0.0,72,0.00,CLR,OVC,0.00,WeatherDisplay:10.37,2013-01-27 09:03:00,
2013-01-27 03:08:00,39.0,30.8,29.99,North,1,0.0,0.0,72,0.00,CLR,OVC,0.00,WeatherDisplay:10.37,2013-01-27 09:08:00,
2013-01-27 03:13:00,39.0,30.8,29.98,North,1,0.0,0.0,72,0.00,CLR,OVC,0.00,WeatherDisplay:10.37,2013-01-27 09:13:00,
2013-01-27 03:18:00,39.0,30.8,29.98,North,1,0.0,0.0,72,0.00,CLR,OVC,0.00,WeatherDisplay:10.37,2013-01-27 09:18:00,
2013-01-27 03:23:00,39.0,30.8,29.97,North,1,0.0,0.0,72,0.00,CLR,OVC,0.00,WeatherDisplay:10.37,2013-01-27 09:23:00,
2013-01-27 03:28:00,39.0,30.8,29.97,North,1,0.0,0.0,72,0.00,CLR,OVC,0.00,WeatherDisplay:10.37,2013-01-27 09:28:00,
2013-01-27 03:33:00,39.0,30.8,29.98,North,1,0.0,0.0,72,0.00,CLR,OVC,0.00,WeatherDisplay:10.37,2013-01-27 09:33:00,
2013-01-27 03:38:00,39.2,30.9,29.99,North,1,0.0,0.0,72,0.00,CLR,OVC,0.00,WeatherDisplay:10.37,2013-01-27 09:38:00,
2013-01-27 03:43:00,39.2,30.9,29.99,North,1,0.0,0.0,72,0.00,CLR,OVC,0.00,WeatherDisplay:10.37,2013-01-27 09:43:00,
2013-01-27 03:48:00,39.2,30.9,29.99,North,1,0.0,0.0,72,0.00,CLR,OVC,0.00,WeatherDisplay:10.37,2013-01-27 09:48:00,
2013-01-27 03:53:00,39.2,30.9,29.99,North,1,0.0,0.0,72,0.00,CLR,OVC,0.00,WeatherDisplay:10.37,2013-01-27 09:53:00,
2013-01-27 03:58:00,39.4,31.1,29.99,North,1,0.0,0.0,72,0.00,CLR,OVC,0.00,WeatherDisplay:10.37,2013-01-27 09:58:00,
2013-01-27 04:03:00,39.4,31.1,29.99,North,1,0.0,0.0,72,0.00,CLR,OVC,0.00,WeatherDisplay:10.37,2013-01-27 10:03:00,
2013-01-27 04:08:00,39.4,31.1,29.99,North,1,0.0,0.0,72,0.00,CLR,OVC,0.00,WeatherDisplay:10.37,2013-01-27 10:08:00,
2013-01-27 04:13:00,39.4,31.1,29.99,North,1,0.0,0.0,72,0.00,CLR,OVC,0.00,WeatherDisplay:10.37,2013-01-27 10:13:00,
2013-01-27 04:18:00,39.4,31.1,29.99,North,1,0.0,0.0,72,0.00,CLR,OVC,0.00,WeatherDisplay:10.37,2013-01-27 10:18:00,
2013-01-27 04:23:00,39.4,31.1,29.98,North,1,0.0,0.0,72,0.00,CLR,OVC,0.00,WeatherDisplay:10.37,2013-01-27 10:23:00,
2013-01-27 04:28:00,39.4,31.1,29.98,North,1,0.0,0.0,72,0.00,CLR,OVC,0.00,WeatherDisplay:10.37,2013-01-27 10:28:00,
2013-01-27 04:33:00,39.4,31.1,29.98,North,1,0.0,0.0,72,0.00,CLR,OVC,0.00,WeatherDisplay:10.37,2013-01-27 10:33:00,
2013-01-27 04:38:00,39.4,31.1,29.98,North,1,0.0,0.0,72,0.00,CLR,OVC,0.00,WeatherDisplay:10.37,2013-01-27 10:38:00,
2013-01-27 04:43:00,39.4,31.1,29.97,North,1,0.0,0.0,72,0.00,CLR,OVC,0.00,WeatherDisplay:10.37,2013-01-27 10:43:00,
2013-01-27 04:48:00,39.2,30.9,29.96,North,1,0.0,0.0,72,0.00,CLR,OVC,0.00,WeatherDisplay:10.37,2013-01-27 10:48:00,
2013-01-27 04:53:00,39.2,30.9,29.96,North,1,0.0,0.0,72,0.00,CLR,OVC,0.00,WeatherDisplay:10.37,2013-01-27 10:53:00,
2013-01-27 04:58:00,39.2,30.9,29.96,North,1,0.0,0.0,72,0.00,CLR,OVC,0.00,WeatherDisplay:10.37,2013-01-27 10:58:00,
2013-01-27 05:03:00,39.2,30.9,29.96,North,1,0.0,0.0,72,0.00,CLR,OVC,0.00,WeatherDisplay:10.37,2013-01-27 11:03:00,
2013-01-27 05:08:00,39.2,30.9,29.95,North,1,0.0,0.0,72,0.00,CLR,OVC,0.00,WeatherDisplay:10.37,2013-01-27 11:08:00,
2013-01-27 05:13:00,39.2,30.9,29.95,North,1,0.0,0.0,72,0.00,CLR,OVC,0.00,WeatherDisplay:10.37,2013-01-27 11:13:00,
2013-01-27 05:18:00,39.2,30.9,29.95,North,1,0.0,0.0,72,0.00,CLR,OVC,0.00,WeatherDisplay:10.37,2013-01-27 11:18:00,
2013-01-27 05:23:00,39.0,30.8,29.94,North,1,0.0,0.0,72,0.00,CLR,OVC,0.00,WeatherDisplay:10.37,2013-01-27 11:23:00,
2013-01-27 05:28:00,39.0,30.8,29.94,North,1,0.0,0.0,72,0.00,CLR,OVC,0.00,WeatherDisplay:10.37,2013-01-27 11:28:00,
2013-01-27 05:33:00,39.0,30.8,29.94,North,1,0.0,0.0,72,0.00,CLR,OVC,0.00,WeatherDisplay:10.37,2013-01-27 11:33:00,
2013-01-27 05:38:00,39.0,30.8,29.94,North,1,0.0,0.0,72,0.00,CLR,OVC,0.00,WeatherDisplay:10.37,2013-01-27 11:38:00,
2013-01-27 05:43:00,39.0,30.8,29.94,North,1,0.0,0.0,72,0.00,CLR,OVC,0.00,WeatherDisplay:10.37,2013-01-27 11:43:00,
2013-01-27 05:48:00,39.0,30.8,29.93,North,1,0.0,0.0,72,0.00,CLR,OVC,0.00,WeatherDisplay:10.37,2013-01-27 11:48:00,
2013-01-27 05:53:00,39.0,30.8,29.93,North,1,0.0,0.0,72,0.00,CLR,OVC,0.00,WeatherDisplay:10.37,2013-01-27 11:53:00,
2013-01-27 05:58:00,39.0,30.8,29.93,North,1,0.0,0.0,72,0.00,CLR,OVC,0.00,WeatherDisplay:10.37,2013-01-27 11:58:00,
2013-01-27 06:03:00,39.2,30.9,29.93,North,1,0.0,0.0,72,0.00,CLR,OVC,0.00,WeatherDisplay:10.37,2013-01-27 12:03:00,
2013-01-27 06:08:00,39.2,30.9,29.93,North,1,0.0,0.0,72,0.00,CLR,OVC,0.00,WeatherDisplay:10.37,2013-01-27 12:08:00,
2013-01-27 06:13:00,39.2,31.3,29.92,North,1,0.0,0.0,73,0.00,CLR,OVC,0.00,WeatherDisplay:10.37,2013-01-27 12:13:00,
2013-01-27 06:18:00,39.4,31.4,29.92,North,1,0.0,0.0,73,0.00,CLR,OVC,0.00,WeatherDisplay:10.37,2013-01-27 12:18:00,
2013-01-27 06:23:00,39.4,31.4,29.91,North,1,0.0,0.0,73,0.00,CLR,OVC,0.00,WeatherDisplay:10.37,2013-01-27 12:23:00,
2013-01-27 06:28:00,39.4,31.4,29.91,North,1,0.0,0.0,73,0.00,CLR,OVC,0.00,WeatherDisplay:10.37,2013-01-27 12:28:00,
2013-01-27 06:33:00,39.6,31.6,29.91,North,1,0.0,0.0,73,0.00,CLR,OVC,0.00,WeatherDisplay:10.37,2013-01-27 12:33:00,
2013-01-27 06:38:00,39.7,31.8,29.91,North,1,0.0,0.0,73,0.00,CLR,OVC,0.00,WeatherDisplay:10.37,2013-01-27 12:38:00,
2013-01-27 06:43:00,39.7,31.8,29.92,North,1,0.0,0.0,73,0.00,CLR,OVC,0.00,WeatherDisplay:10.37,2013-01-27 12:43:00,
2013-01-27 06:48:00,39.7,31.8,29.92,North,1,0.0,0.0,73,0.00,CLR,OVC,0.00,WeatherDisplay:10.37,2013-01-27 12:48:00,
2013-01-27 06:53:00,39.7,32.1,29.92,North,1,0.0,0.0,74,0.00,CLR,OVC,0.00,WeatherDisplay:10.37,2013-01-27 12:53:00,
2013-01-27 06:57:00,39.7,32.1,29.92,North,1,0.0,0.0,74,0.00,CLR,OVC,0.00,WeatherDisplay:10.37,2013-01-27 12:57:00,
2013-01-27 07:02:00,39.7,32.5,29.92,North,1,0.0,0.0,75,0.00,CLR,OVC,0.00,WeatherDisplay:10.37,2013-01-27 13:02:00,
2013-01-27 07:07:00,39.7,32.5,29.91,North,1,0.0,0.0,75,0.00,CLR,OVC,0.00,WeatherDisplay:10.37,2013-01-27 13:07:00,
2013-01-27 07:12:00,39.7,32.8,29.92,North,1,0.0,0.0,76,0.00,CLR,OVC,0.00,WeatherDisplay:10.37,2013-01-27 13:12:00,
2013-01-27 07:17:00,39.6,32.9,29.92,North,1,0.0,0.0,77,0.00,CLR,OVC,0.00,WeatherDisplay:10.37,2013-01-27 13:17:00,
2013-01-27 07:22:00,39.6,32.9,29.91,North,1,0.0,0.0,77,0.00,CLR,OVC,0.00,WeatherDisplay:10.37,2013-01-27 13:22:00,
2013-01-27 07:27:00,39.6,33.3,29.91,North,1,0.0,0.0,78,0.00,CLR,OVC,0.00,WeatherDisplay:10.37,2013-01-27 13:27:00,
2013-01-27 07:32:00,39.6,33.3,29.91,North,1,0.0,0.0,78,0.00,CLR,OVC,0.00,WeatherDisplay:10.37,2013-01-27 13:32:00,
2013-01-27 07:37:00,39.6,33.6,29.91,North,1,0.0,0.0,79,0.00,CLR,OVC,0.00,WeatherDisplay:10.37,2013-01-27 13:37:00,
2013-01-27 07:42:00,39.6,33.6,29.90,North,1,0.0,0.0,79,0.00,CLR,OVC,0.00,WeatherDisplay:10.37,2013-01-27 13:42:00,
2013-01-27 07:47:00,39.7,33.8,29.90,North,1,0.0,0.0,79,0.00,CLR,OVC,0.00,WeatherDisplay:10.37,2013-01-27 13:47:00,
2013-01-27 07:52:00,39.7,33.8,29.90,North,1,0.0,0.0,79,0.00,CLR,OVC,0.00,WeatherDisplay:10.37,2013-01-27 13:52:00,
2013-01-27 07:57:00,39.9,33.9,29.89,North,1,0.0,0.0,79,0.00,CLR,OVC,0.00,WeatherDisplay:10.37,2013-01-27 13:57:00,
2013-01-27 08:02:00,39.9,33.9,29.90,North,1,0.0,0.0,79,0.00,CLR,OVC,0.00,WeatherDisplay:10.37,2013-01-27 14:02:00,
2013-01-27 08:07:00,40.1,34.1,29.89,North,1,0.0,0.0,79,0.00,CLR,OVC,0.00,WeatherDisplay:10.37,2013-01-27 14:07:00,
2013-01-27 08:12:00,40.3,34.3,29.89,North,1,0.0,0.0,79,0.00,CLR,OVC,0.00,WeatherDisplay:10.37,2013-01-27 14:12:00,
2013-01-27 08:17:00,40.5,34.5,29.89,North,1,0.0,0.0,79,0.00,CLR,OVC,0.00,WeatherDisplay:10.37,2013-01-27 14:17:00,
2013-01-27 08:22:00,40.6,34.6,29.90,North,1,0.0,0.0,79,0.00,CLR,OVC,0.00,WeatherDisplay:10.37,2013-01-27 14:22:00,
2013-01-27 08:27:00,40.6,34.6,29.90,North,1,0.0,0.0,79,0.00,CLR,OVC,0.00,WeatherDisplay:10.37,2013-01-27 14:27:00,
2013-01-27 08:32:00,40.8,34.8,29.89,North,1,0.0,0.0,79,0.00,CLR,OVC,0.00,WeatherDisplay:10.37,2013-01-27 14:32:00,
2013-01-27 08:37:00,41.0,35.0,29.89,North,1,0.0,0.0,79,0.00,CLR,OVC,0.00,WeatherDisplay:10.37,2013-01-27 14:37:00,
2013-01-27 08:42:00,41.0,35.0,29.88,North,1,0.0,0.0,79,0.00,CLR,OVC,0.00,WeatherDisplay:10.37,2013-01-27 14:42:00,
2013-01-27 08:47:00,41.2,35.2,29.88,North,1,0.0,0.0,79,0.00,CLR,OVC,0.00,WeatherDisplay:10.37,2013-01-27 14:47:00,
2013-01-27 08:52:00,41.2,35.2,29.88,North,1,0.0,0.0,79,0.00,CLR,OVC,0.00,WeatherDisplay:10.37,2013-01-27 14:52:00,
2013-01-27 08:57:00,41.5,35.5,29.89,North,1,0.0,0.0,79,0.00,CLR,OVC,0.00,WeatherDisplay:10.37,2013-01-27 14:57:00,
2013-01-27 09:02:00,41.7,36.0,29.88,North,1,0.0,0.0,80,0.00,CLR,OVC,0.00,WeatherDisplay:10.37,2013-01-27 15:02:00,
2013-01-27 09:07:00,41.7,36.0,29.88,North,1,0.0,0.0,80,0.00,CLR,OVC,0.00,WeatherDisplay:10.37,2013-01-27 15:07:00,
2013-01-27 09:12:00,41.9,36.2,29.88,North,1,0.0,0.0,80,0.00,CLR,OVC,0.00,WeatherDisplay:10.37,2013-01-27 15:12:00,
2013-01-27 09:17:00,42.1,36.4,29.88,North,1,0.0,0.0,80,0.00,CLR,OVC,0.00,WeatherDisplay:10.37,2013-01-27 15:17:00,
2013-01-27 09:22:00,42.3,36.8,29.87,North,1,0.0,0.0,81,0.00,CLR,OVC,0.00,WeatherDisplay:10.37,2013-01-27 15:22:00,
2013-01-27 09:27:00,42.6,37.2,29.88,North,1,0.0,0.0,81,0.00,CLR,OVC,0.00,WeatherDisplay:10.37,2013-01-27 15:27:00,
2013-01-27 09:32:00,42.6,37.2,29.88,North,1,0.0,0.0,81,0.00,CLR,OVC,0.00,WeatherDisplay:10.37,2013-01-27 15:32:00,
2013-01-27 09:37:00,43.0,37.5,29.88,North,1,0.0,0.0,81,0.00,CLR,OVC,0.00,WeatherDisplay:10.37,2013-01-27 15:37:00,
2013-01-27 09:42:00,43.0,37.5,29.87,North,1,0.0,0.0,81,0.00,CLR,OVC,0.00,WeatherDisplay:10.37,2013-01-27 15:42:00,
2013-01-27 09:47:00,43.0,37.5,29.87,North,1,0.0,0.0,81,0.00,CLR,OVC,0.00,WeatherDisplay:10.37,2013-01-27 15:47:00,
2013-01-27 09:52:00,43.5,38.1,29.86,North,1,0.0,0.0,81,0.00,CLR,OVC,0.00,WeatherDisplay:10.37,2013-01-27 15:52:00,
2013-01-27 09:57:00,43.9,38.7,29.86,North,1,0.0,0.0,82,0.00,CLR,OVC,0.00,WeatherDisplay:10.37,2013-01-27 15:57:00,
2013-01-27 10:02:00,44.2,39.1,29.86,North,1,0.0,0.0,82,0.00,CLR,OVC,0.00,WeatherDisplay:10.37,2013-01-27 16:02:00,
2013-01-27 10:07:00,44.6,39.4,29.86,North,1,0.0,0.0,82,0.00,CLR,OVC,0.00,WeatherDisplay:10.37,2013-01-27 16:07:00,
2013-01-27 10:12:00,44.8,39.9,29.86,North,1,0.0,0.0,83,0.00,CLR,OVC,0.00,WeatherDisplay:10.37,2013-01-27 16:12:00,
2013-01-27 10:17:00,45.1,40.3,29.86,North,1,0.0,0.0,83,0.00,CLR,OVC,0.00,WeatherDisplay:10.37,2013-01-27 16:17:00,
2013-01-27 10:22:00,45.3,40.5,29.86,North,1,0.0,0.0,83,0.00,CLR,OVC,0.00,WeatherDisplay:10.37,2013-01-27 16:22:00,
2013-01-27 10:27:00,45.7,40.8,29.85,North,1,0.0,0.0,83,0.00,CLR,OVC,0.00,WeatherDisplay:10.37,2013-01-27 16:27:00,
2013-01-27 10:32:00,46.0,41.2,29.85,North,1,0.0,0.0,83,0.00,CLR,OVC,0.00,WeatherDisplay:10.37,2013-01-27 16:32:00,
2013-01-27 10:37:00,46.4,41.5,29.85,North,1,0.0,0.0,83,0.00,CLR,OVC,0.00,WeatherDisplay:10.37,2013-01-27 16:37:00,
2013-01-27 10:42:00,46.9,42.0,29.85,North,1,0.0,0.0,83,0.00,CLR,OVC,0.00,WeatherDisplay:10.37,2013-01-27 16:42:00,
2013-01-27 10:47:00,47.1,42.2,29.86,North,1,0.0,0.0,83,0.00,CLR,OVC,0.00,WeatherDisplay:10.37,2013-01-27 16:47:00,
2013-01-27 10:52:00,47.8,42.6,29.85,North,1,0.0,0.0,82,0.00,CLR,OVC,0.00,WeatherDisplay:10.37,2013-01-27 16:52:00,
2013-01-27 10:57:00,48.0,42.8,29.86,North,1,0.0,0.0,82,0.00,CLR,OVC,0.00,WeatherDisplay:10.37,2013-01-27 16:57:00,
2013-01-27 11:02:00,48.0,42.8,29.86,North,1,0.0,0.0,82,0.00,CLR,OVC,0.00,WeatherDisplay:10.37,2013-01-27 17:02:00,
2013-01-27 11:07:00,48.2,42.6,29.85,North,1,0.0,0.0,81,0.00,CLR,OVC,0.00,WeatherDisplay:10.37,2013-01-27 17:07:00,
2013-01-27 11:12:00,48.4,42.8,29.85,North,1,0.0,0.0,81,0.00,CLR,OVC,0.00,WeatherDisplay:10.37,2013-01-27 17:12:00,
2013-01-27 11:17:00,48.4,42.8,29.85,North,1,0.0,0.0,81,0.00,CLR,OVC,0.00,WeatherDisplay:10.37,2013-01-27 17:17:00,
2013-01-27 11:22:00,48.4,42.8,29.85,North,1,0.0,0.0,81,0.00,CLR,OVC,0.00,WeatherDisplay:10.37,2013-01-27 17:22:00,
2013-01-27 11:27:00,48.4,42.8,29.84,North,1,0.0,0.0,81,0.00,CLR,OVC,0.00,WeatherDisplay:10.37,2013-01-27 17:27:00,
2013-01-27 11:32:00,48.7,43.2,29.84,North,1,0.0,0.0,81,0.00,CLR,OVC,0.00,WeatherDisplay:10.37,2013-01-27 17:32:00,
2013-01-27 11:37:00,48.9,43.7,29.84,North,1,0.0,0.0,82,0.00,CLR,OVC,0.00,WeatherDisplay:10.37,2013-01-27 17:37:00,
2013-01-27 11:42:00,48.9,43.7,29.83,North,1,0.0,0.0,82,0.00,CLR,OVC,0.00,WeatherDisplay:10.37,2013-01-27 17:42:00,
2013-01-27 11:47:00,49.3,44.0,29.83,North,1,0.0,0.0,82,0.00,CLR,OVC,0.00,WeatherDisplay:10.37,2013-01-27 17:47:00,
2013-01-27 11:52:00,49.3,44.0,29.83,North,1,0.0,0.0,82,0.00,CLR,OVC,0.00,WeatherDisplay:10.37,2013-01-27 17:52:00,
2013-01-27 11:57:00,49.3,44.0,29.83,North,1,0.0,0.0,82,0.00,CLR,OVC,0.00,WeatherDisplay:10.37,2013-01-27 17:57:00,
2013-01-27 12:02:00,49.5,44.2,29.83,North,1,0.0,0.0,82,0.00,CLR,OVC,0.00,WeatherDisplay:10.37,2013-01-27 18:02:00,
2013-01-27 12:07:00,49.6,44.4,29.83,North,1,0.0,0.0,82,0.00,CLR,OVC,0.00,WeatherDisplay:10.37,2013-01-27 18:07:00,
2013-01-27 12:12:00,49.6,44.4,29.83,North,1,0.0,0.0,82,0.00,CLR,OVC,0.00,WeatherDisplay:10.37,2013-01-27 18:12:00,
2013-01-27 12:17:00,49.8,44.5,29.83,North,1,0.0,0.0,82,0.00,CLR,OVC,0.00,WeatherDisplay:10.37,2013-01-27 18:17:00,
2013-01-27 12:22:00,49.8,44.5,29.82,North,1,0.0,0.0,82,0.00,CLR,OVC,0.00,WeatherDisplay:10.37,2013-01-27 18:22:00,
2013-01-27 12:27:00,49.8,44.5,29.82,North,1,0.0,0.0,82,0.00,CLR,OVC,0.00,WeatherDisplay:10.37,2013-01-27 18:27:00,
2013-01-27 12:32:00,50.4,45.1,29.82,North,1,0.0,0.0,82,0.00,CLR,OVC,0.00,WeatherDisplay:10.37,2013-01-27 18:32:00,
2013-01-27 12:37:00,50.4,45.1,29.81,North,1,0.0,0.0,82,0.00,CLR,OVC,0.00,WeatherDisplay:10.37,2013-01-27 18:37:00,
2013-01-27 12:42:00,50.7,45.4,29.81,North,1,0.0,0.0,82,0.00,CLR,OVC,0.00,WeatherDisplay:10.37,2013-01-27 18:42:00,
2013-01-27 12:47:00,51.3,46.0,29.80,North,1,0.0,0.0,82,0.00,CLR,OVC,0.00,WeatherDisplay:10.37,2013-01-27 18:47:00,
2013-01-27 12:52:00,51.4,45.8,29.80,North,1,0.0,0.0,81,0.00,CLR,OVC,0.00,WeatherDisplay:10.37,2013-01-27 18:52:00,
2013-01-27 12:57:00,51.6,46.0,29.80,North,1,0.0,0.0,81,0.00,CLR,OVC,0.00,WeatherDisplay:10.37,2013-01-27 18:57:00,
2013-01-27 13:02:00,52.0,46.3,29.80,North,1,0.0,0.0,81,0.00,CLR,OVC,0.00,WeatherDisplay:10.37,2013-01-27 19:02:00,
2013-01-27 13:07:00,52.3,46.7,29.80,North,1,0.0,0.0,81,0.00,CLR,OVC,0.00,WeatherDisplay:10.37,2013-01-27 19:07:00,
2013-01-27 13:12:00,52.5,46.5,29.79,North,1,0.0,0.0,80,0.00,CLR,OVC,0.00,WeatherDisplay:10.37,2013-01-27 19:12:00,
2013-01-27 13:17:00,52.9,46.9,29.79,North,1,0.0,0.0,80,0.00,CLR,OVC,0.00,WeatherDisplay:10.37,2013-01-27 19:17:00,
2013-01-27 13:22:00,53.1,47.1,29.78,North,1,0.0,0.0,80,0.00,CLR,OVC,0.00,WeatherDisplay:10.37,2013-01-27 19:22:00,
2013-01-27 13:27:00,53.2,46.9,29.78,North,1,0.0,0.0,79,0.00,CLR,OVC,0.00,WeatherDisplay:10.37,2013-01-27 19:27:00,
2013-01-27 13:32:00,53.2,46.9,29.78,North,1,0.0,0.0,79,0.00,CLR,OVC,0.00,WeatherDisplay:10.37,2013-01-27 19:32:00,
2013-01-27 13:37:00,53.4,47.1,29.78,North,1,0.0,0.0,79,0.00,CLR,OVC,0.00,WeatherDisplay:10.37,2013-01-27 19:37:00,
2013-01-27 13:42:00,53.4,47.1,29.77,North,1,0.0,0.0,79,0.00,CLR,OVC,0.00,WeatherDisplay:10.37,2013-01-27 19:42:00,
2013-01-27 13:47:00,53.6,47.2,29.77,North,1,0.0,0.0,79,0.00,CLR,OVC,0.00,WeatherDisplay:10.37,2013-01-27 19:47:00,
2013-01-27 13:52:00,54.1,47.8,29.77,North,1,0.0,0.0,79,0.00,CLR,OVC,0.00,WeatherDisplay:10.37,2013-01-27 19:52:00,
2013-01-27 13:57:00,54.1,47.4,29.76,North,1,0.0,0.0,78,0.00,CLR,OVC,0.00,WeatherDisplay:10.37,2013-01-27 19:57:00,
2013-01-27 14:02:00,54.7,48.0,29.76,North,1,0.0,0.0,78,0.00,CLR,OVC,0.00,WeatherDisplay:10.37,2013-01-27 20:02:00,
2013-01-27 14:07:00,54.9,47.8,29.76,North,1,0.0,0.0,77,0.00,CLR,OVC,0.00,WeatherDisplay:10.37,2013-01-27 20:07:00,
2013-01-27 14:12:00,55.0,48.0,29.76,North,1,0.0,0.0,77,0.00,CLR,OVC,0.00,WeatherDisplay:10.37,2013-01-27 20:12:00,
2013-01-27 14:17:00,55.2,48.1,29.76,North,1,0.0,0.0,77,0.00,CLR,OVC,0.00,WeatherDisplay:10.37,2013-01-27 20:17:00,
2013-01-27 14:22:00,55.6,48.1,29.76,North,1,0.0,0.0,76,0.00,CLR,OVC,0.00,WeatherDisplay:10.37,2013-01-27 20:22:00,
2013-01-27 14:27:00,55.6,48.1,29.76,North,1,0.0,0.0,76,0.00,CLR,OVC,0.00,WeatherDisplay:10.37,2013-01-27 20:27:00,
2013-01-27 14:32:00,55.8,48.3,29.76,North,1,0.0,0.0,76,0.00,CLR,OVC,0.00,WeatherDisplay:10.37,2013-01-27 20:32:00,
2013-01-27 14:37:00,55.9,48.1,29.76,North,1,0.0,0.0,75,0.00,CLR,OVC,0.00,WeatherDisplay:10.37,2013-01-27 20:37:00,
2013-01-27 14:42:00,56.1,48.3,29.76,North,1,0.0,0.0,75,0.00,CLR,OVC,0.00,WeatherDisplay:10.37,2013-01-27 20:42:00,
2013-01-27 14:47:00,56.1,48.3,29.76,North,1,0.0,0.0,75,0.00,CLR,OVC,0.00,WeatherDisplay:10.37,2013-01-27 20:47:00,
2013-01-27 14:52:00,56.5,48.3,29.75,North,1,0.0,0.0,74,0.00,CLR,OVC,0.00,WeatherDisplay:10.37,2013-01-27 20:52:00,
2013-01-27 14:57:00,56.5,48.3,29.75,North,1,0.0,0.0,74,0.00,CLR,OVC,0.00,WeatherDisplay:10.37,2013-01-27 20:57:00,
2013-01-27 15:02:00,56.7,48.5,29.75,North,1,0.0,0.0,74,0.00,CLR,OVC,0.00,WeatherDisplay:10.37,2013-01-27 21:02:00,
2013-01-27 15:07:00,56.7,48.1,29.75,North,1,0.0,0.0,73,0.00,CLR,OVC,0.00,WeatherDisplay:10.37,2013-01-27 21:07:00,
2013-01-27 15:12:00,56.7,48.1,29.75,North,1,0.0,0.0,73,0.00,CLR,OVC,0.00,WeatherDisplay:10.37,2013-01-27 21:12:00,
2013-01-27 15:17:00,56.7,48.1,29.76,North,1,0.0,0.0,73,0.00,CLR,OVC,0.00,WeatherDisplay:10.37,2013-01-27 21:17:00,
2013-01-27 15:22:00,56.7,48.1,29.75,North,1,0.0,0.0,73,0.00,CLR,OVC,0.00,WeatherDisplay:10.37,2013-01-27 21:22:00,
2013-01-27 15:27:00,56.7,48.1,29.75,North,1,0.0,0.0,73,0.00,CLR,OVC,0.00,WeatherDisplay:10.37,2013-01-27 21:27:00,
2013-01-27 15:32:00,56.7,48.1,29.75,North,1,0.0,0.0,73,0.00,CLR,OVC,0.00,WeatherDisplay:10.37,2013-01-27 21:32:00,
2013-01-27 15:37:00,56.8,48.3,29.75,North,1,0.0,0.0,73,0.00,CLR,OVC,0.00,WeatherDisplay:10.37,2013-01-27 21:37:00,
2013-01-27 15:42:00,56.8,48.3,29.75,North,1,0.0,0.0,73,0.00,CLR,OVC,0.00,WeatherDisplay:10.37,2013-01-27 21:42:00,
2013-01-27 15:47:00,56.7,48.1,29.75,North,1,0.0,0.0,73,0.00,CLR,OVC,0.00,WeatherDisplay:10.37,2013-01-27 21:47:00,
2013-01-27 15:52:00,56.7,48.1,29.75,North,1,0.0,0.0,73,0.00,CLR,OVC,0.00,WeatherDisplay:10.37,2013-01-27 21:52:00,
2013-01-27 15:57:00,56.7,48.1,29.75,North,1,0.0,0.0,73,0.00,CLR,OVC,0.00,WeatherDisplay:10.37,2013-01-27 21:57:00,
2013-01-27 16:02:00,56.7,48.1,29.75,North,1,0.0,0.0,73,0.00,CLR,OVC,0.00,WeatherDisplay:10.37,2013-01-27 22:02:00,
2013-01-27 16:07:00,56.5,47.9,29.75,North,1,0.0,0.0,73,0.00,CLR,OVC,0.00,WeatherDisplay:10.37,2013-01-27 22:07:00,
2013-01-27 16:12:00,56.5,47.9,29.75,North,1,0.0,0.0,73,0.00,CLR,OVC,0.00,WeatherDisplay:10.37,2013-01-27 22:12:00,
2013-01-27 16:17:00,56.5,47.9,29.74,North,1,0.0,0.0,73,0.00,CLR,OVC,0.00,WeatherDisplay:10.37,2013-01-27 22:17:00,
2013-01-27 16:22:00,56.5,47.9,29.74,North,1,0.0,0.0,73,0.00,CLR,OVC,0.00,WeatherDisplay:10.37,2013-01-27 22:22:00,
2013-01-27 16:27:00,56.5,47.9,29.74,North,1,0.0,0.0,73,0.00,CLR,OVC,0.00,WeatherDisplay:10.37,2013-01-27 22:27:00,
2013-01-27 16:32:00,56.5,47.9,29.73,North,1,0.0,0.0,73,0.00,CLR,OVC,0.00,WeatherDisplay:10.37,2013-01-27 22:32:00,
2013-01-27 16:37:00,56.5,47.9,29.73,North,1,0.0,0.0,73,0.00,CLR,OVC,0.00,WeatherDisplay:10.37,2013-01-27 22:37:00,
2013-01-27 16:42:00,56.5,47.9,29.75,North,1,0.0,0.0,73,0.00,CLR,OVC,0.00,WeatherDisplay:10.37,2013-01-27 22:42:00,
2013-01-27 16:47:00,56.5,47.9,29.74,North,1,0.0,0.0,73,0.00,CLR,OVC,0.00,WeatherDisplay:10.37,2013-01-27 22:47:00,
2013-01-27 16:52:00,56.7,48.1,29.74,North,1,0.0,0.0,73,0.00,CLR,OVC,0.00,WeatherDisplay:10.37,2013-01-27 22:52:00,
2013-01-27 16:57:00,57.0,48.4,29.73,North,1,0.0,0.0,73,0.00,CLR,OVC,0.00,WeatherDisplay:10.37,2013-01-27 22:57:00,
2013-01-27 17:02:00,57.0,48.4,29.74,North,1,0.0,0.0,73,0.00,CLR,OVC,0.00,WeatherDisplay:10.37,2013-01-27 23:02:00,
2013-01-27 17:07:00,57.2,48.3,29.74,North,1,0.0,0.0,72,0.00,CLR,OVC,0.00,WeatherDisplay:10.37,2013-01-27 23:07:00,
2013-01-27 17:12:00,57.2,48.3,29.74,North,1,0.0,0.0,72,0.00,CLR,OVC,0.00,WeatherDisplay:10.37,2013-01-27 23:12:00,
2013-01-27 17:17:00,57.0,48.4,29.74,North,1,0.0,0.0,73,0.00,CLR,OVC,0.00,WeatherDisplay:10.37,2013-01-27 23:17:00,
2013-01-27 17:22:00,56.8,48.3,29.74,North,1,0.0,0.0,73,0.00,CLR,OVC,0.00,WeatherDisplay:10.37,2013-01-27 23:22:00,
2013-01-27 17:27:00,56.8,48.3,29.74,North,1,0.0,0.0,73,0.00,CLR,OVC,0.00,WeatherDisplay:10.37,2013-01-27 23:27:00,
2013-01-27 17:32:00,56.5,47.9,29.75,North,1,0.0,0.0,73,0.00,CLR,OVC,0.00,WeatherDisplay:10.37,2013-01-27 23:32:00,
2013-01-27 17:37:00,56.1,47.9,29.75,North,1,0.0,0.0,74,0.00,CLR,OVC,0.00,WeatherDisplay:10.37,2013-01-27 23:37:00,
2013-01-27 17:42:00,56.1,47.9,29.75,North,1,0.0,0.0,74,0.00,CLR,OVC,0.00,WeatherDisplay:10.37,2013-01-27 23:42:00,
2013-01-27 17:47:00,56.1,47.9,29.75,North,1,0.0,0.0,74,0.00,CLR,OVC,0.00,WeatherDisplay:10.37,2013-01-27 23:47:00,
2013-01-27 17:52:00,55.9,47.8,29.75,North,1,0.0,0.0,74,0.00,CLR,OVC,0.00,WeatherDisplay:10.37,2013-01-27 23:52:00,
2013-01-27 17:57:00,55.9,48.1,29.75,North,1,0.0,0.0,75,0.00,CLR,OVC,0.00,WeatherDisplay:10.37,2013-01-27 23:57:00,
2013-01-27 18:02:00,55.9,48.1,29.75,North,1,0.0,0.0,75,0.00,CLR,OVC,0.00,WeatherDisplay:10.37,2013-01-28 00:02:00,
2013-01-27 18:07:00,55.9,48.1,29.75,North,1,0.0,0.0,75,0.00,CLR,OVC,0.00,WeatherDisplay:10.37,2013-01-28 00:07:00,
2013-01-27 18:12:00,55.9,48.1,29.76,North,1,0.0,0.0,75,0.00,CLR,OVC,0.00,WeatherDisplay:10.37,2013-01-28 00:12:00,
2013-01-27 18:17:00,55.9,48.1,29.76,North,1,0.0,0.0,75,0.00,CLR,OVC,0.00,WeatherDisplay:10.37,2013-01-28 00:17:00,
2013-01-27 18:22:00,55.9,48.5,29.76,North,1,0.0,0.0,76,0.00,CLR,OVC,0.00,WeatherDisplay:10.37,2013-01-28 00:22:00,
2013-01-27 18:27:00,56.1,48.7,29.76,North,1,0.0,0.0,76,0.00,CLR,OVC,0.00,WeatherDisplay:10.37,2013-01-28 00:27:00,
2013-01-27 18:32:00,56.1,48.7,29.76,North,1,0.0,0.0,76,0.00,CLR,OVC,0.00,WeatherDisplay:10.37,2013-01-28 00:32:00,
2013-01-27 18:37:00,56.1,48.7,29.77,North,1,0.0,0.0,76,0.00,CLR,OVC,0.00,WeatherDisplay:10.37,2013-01-28 00:37:00,
2013-01-27 18:42:00,56.1,48.7,29.77,North,1,0.0,0.0,76,0.00,CLR,OVC,0.00,WeatherDisplay:10.37,2013-01-28 00:42:00,
2013-01-27 18:47:00,56.1,48.7,29.77,North,1,0.0,0.0,76,0.00,CLR,OVC,0.00,WeatherDisplay:10.37,2013-01-28 00:47:00,
2013-01-27 18:52:00,56.1,48.7,29.77,North,1,0.0,0.0,76,0.00,CLR,OVC,0.00,WeatherDisplay:10.37,2013-01-28 00:52:00,
2013-01-27 18:57:00,56.1,48.7,29.77,North,1,0.0,0.0,76,0.00,CLR,OVC,0.00,WeatherDisplay:10.37,2013-01-28 00:57:00,
2013-01-27 19:02:00,56.1,48.7,29.78,North,1,0.0,0.0,76,0.00,CLR,OVC,0.00,WeatherDisplay:10.37,2013-01-28 01:02:00,
2013-01-27 19:07:00,56.1,48.7,29.78,North,1,0.0,0.0,76,0.00,CLR,OVC,0.00,WeatherDisplay:10.37,2013-01-28 01:07:00,
2013-01-27 19:12:00,56.1,48.7,29.78,North,1,0.0,0.0,76,0.00,CLR,OVC,0.00,WeatherDisplay:10.37,2013-01-28 01:12:00,
2013-01-27 19:17:00,56.1,49.0,29.78,North,1,0.0,0.0,77,0.00,CLR,OVC,0.00,WeatherDisplay:10.37,2013-01-28 01:17:00,
2013-01-27 19:22:00,56.1,49.0,29.78,North,1,0.0,0.0,77,0.00,CLR,OVC,0.00,WeatherDisplay:10.37,2013-01-28 01:22:00,
2013-01-27 19:27:00,56.1,49.0,29.78,North,1,0.0,0.0,77,0.00,CLR,OVC,0.00,WeatherDisplay:10.37,2013-01-28 01:27:00,
2013-01-27 19:32:00,56.1,49.0,29.78,North,1,0.0,0.0,77,0.00,CLR,OVC,0.00,WeatherDisplay:10.37,2013-01-28 01:32:00,
2013-01-27 19:37:00,56.1,49.0,29.78,North,1,0.0,0.0,77,0.00,CLR,OVC,0.00,WeatherDisplay:10.37,2013-01-28 01:37:00,
2013-01-27 19:42:00,56.1,49.0,29.78,North,1,0.0,0.0,77,0.00,CLR,OVC,0.00,WeatherDisplay:10.37,2013-01-28 01:42:00,
2013-01-27 19:47:00,56.1,49.0,29.78,North,1,0.0,0.0,77,0.00,CLR,OVC,0.00,WeatherDisplay:10.37,2013-01-28 01:47:00,
2013-01-27 19:52:00,56.1,49.0,29.78,North,1,0.0,0.0,77,0.00,CLR,OVC,0.00,WeatherDisplay:10.37,2013-01-28 01:52:00,
2013-01-27 19:57:00,56.1,49.4,29.78,North,1,0.0,0.0,78,0.00,CLR,OVC,0.00,WeatherDisplay:10.37,2013-01-28 01:57:00,
2013-01-27 20:02:00,56.1,49.4,29.78,North,1,0.0,0.0,78,0.00,CLR,OVC,0.00,WeatherDisplay:10.37,2013-01-28 02:02:00,
2013-01-27 20:07:00,56.1,49.4,29.78,North,1,0.0,0.0,78,0.00,CLR,OVC,0.00,WeatherDisplay:10.37,2013-01-28 02:07:00,
2013-01-27 20:12:00,56.1,49.4,29.79,North,1,0.0,0.0,78,0.00,CLR,OVC,0.00,WeatherDisplay:10.37,2013-01-28 02:12:00,
2013-01-27 20:17:00,56.1,49.4,29.79,North,1,0.0,0.0,78,0.00,CLR,OVC,0.00,WeatherDisplay:10.37,2013-01-28 02:17:00,
2013-01-27 20:22:00,56.1,49.4,29.78,North,1,0.0,0.0,78,0.00,CLR,OVC,0.00,WeatherDisplay:10.37,2013-01-28 02:22:00,
2013-01-27 20:27:00,56.1,49.4,29.79,North,1,0.0,0.0,78,0.00,CLR,OVC,0.00,WeatherDisplay:10.37,2013-01-28 02:27:00,
2013-01-27 20:32:00,56.1,49.4,29.79,North,1,0.0,0.0,78,0.00,CLR,OVC,0.00,WeatherDisplay:10.37,2013-01-28 02:32:00,
2013-01-27 20:37:00,55.9,49.2,29.79,North,1,0.0,0.0,78,0.00,CLR,OVC,0.00,WeatherDisplay:10.37,2013-01-28 02:37:00,
2013-01-27 20:42:00,56.1,49.4,29.79,North,1,0.0,0.0,78,0.00,CLR,OVC,0.00,WeatherDisplay:10.37,2013-01-28 02:42:00,
2013-01-27 20:47:00,55.9,49.2,29.79,North,1,0.0,0.0,78,0.00,CLR,OVC,0.00,WeatherDisplay:10.37,2013-01-28 02:47:00,
2013-01-27 20:52:00,55.9,49.5,29.79,North,1,0.0,0.0,79,0.00,CLR,OVC,0.00,WeatherDisplay:10.37,2013-01-28 02:52:00,
2013-01-27 20:57:00,55.9,49.5,29.79,North,1,0.0,0.0,79,0.00,CLR,OVC,0.00,WeatherDisplay:10.37,2013-01-28 02:57:00,
2013-01-27 21:02:00,55.9,49.5,29.79,North,1,0.0,0.0,79,0.00,CLR,OVC,0.00,WeatherDisplay:10.37,2013-01-28 03:02:00,
2013-01-27 21:07:00,55.9,49.5,29.79,North,1,0.0,0.0,79,0.00,CLR,OVC,0.00,WeatherDisplay:10.37,2013-01-28 03:07:00,
2013-01-27 21:12:00,56.1,49.7,29.79,North,1,0.0,0.0,79,0.00,CLR,OVC,0.00,WeatherDisplay:10.37,2013-01-28 03:12:00,
2013-01-27 21:17:00,56.1,50.0,29.79,North,1,0.0,0.0,80,0.00,CLR,OVC,0.00,WeatherDisplay:10.37,2013-01-28 03:17:00,
2013-01-27 21:22:00,56.1,50.0,29.79,North,1,0.0,0.0,80,0.00,CLR,OVC,0.00,WeatherDisplay:10.37,2013-01-28 03:22:00,
2013-01-27 21:27:00,56.1,50.0,29.80,North,1,0.0,0.0,80,0.00,CLR,OVC,0.00,WeatherDisplay:10.37,2013-01-28 03:27:00,
2013-01-27 21:32:00,56.1,50.0,29.80,North,1,0.0,0.0,80,0.00,CLR,OVC,0.00,WeatherDisplay:10.37,2013-01-28 03:32:00,
2013-01-27 21:37:00,56.1,50.0,29.80,North,1,0.0,0.0,80,0.00,CLR,OVC,0.00,WeatherDisplay:10.37,2013-01-28 03:37:00,
2013-01-27 21:42:00,56.5,50.4,29.80,North,1,0.0,0.0,80,0.00,CLR,OVC,0.00,WeatherDisplay:10.37,2013-01-28 03:42:00,
2013-01-27 21:47:00,56.5,50.4,29.81,North,1,0.0,0.0,80,0.00,CLR,OVC,0.00,WeatherDisplay:10.37,2013-01-28 03:47:00,
2013-01-27 21:52:00,56.5,50.4,29.81,North,1,0.0,0.0,80,0.00,CLR,OVC,0.00,WeatherDisplay:10.37,2013-01-28 03:52:00,
2013-01-27 21:57:00,56.5,50.4,29.81,North,1,0.0,0.0,80,0.00,CLR,OVC,0.00,WeatherDisplay:10.37,2013-01-28 03:57:00,
2013-01-27 22:02:00,56.5,50.4,29.81,North,1,0.0,0.0,80,0.00,CLR,OVC,0.00,WeatherDisplay:10.37,2013-01-28 04:02:00,
2013-01-27 22:07:00,56.5,50.4,29.81,North,1,0.0,0.0,80,0.00,CLR,OVC,0.00,WeatherDisplay:10.37,2013-01-28 04:07:00,
2013-01-27 22:12:00,56.5,50.4,29.81,North,1,0.0,0.0,80,0.00,CLR,OVC,0.00,WeatherDisplay:10.37,2013-01-28 04:12:00,
2013-01-27 22:17:00,56.5,50.7,29.82,North,1,0.0,0.0,81,0.00,CLR,OVC,0.00,WeatherDisplay:10.37,2013-01-28 04:17:00,
2013-01-27 22:22:00,56.5,50.7,29.81,North,1,0.0,0.0,81,0.00,CLR,OVC,0.00,WeatherDisplay:10.37,2013-01-28 04:22:00,
2013-01-27 22:27:00,56.5,50.7,29.81,North,1,0.0,0.0,81,0.00,CLR,OVC,0.00,WeatherDisplay:10.37,2013-01-28 04:27:00,
2013-01-27 22:32:00,56.5,50.7,29.81,North,1,0.0,0.0,81,0.00,CLR,OVC,0.00,WeatherDisplay:10.37,2013-01-28 04:32:00,
2013-01-27 22:37:00,56.5,50.7,29.82,North,1,0.0,0.0,81,0.00,CLR,OVC,0.00,WeatherDisplay:10.37,2013-01-28 04:37:00,
2013-01-27 22:42:00,56.5,50.7,29.82,North,1,0.0,0.0,81,0.00,CLR,OVC,0.00,WeatherDisplay:10.37,2013-01-28 04:42:00,
2013-01-27 22:47:00,56.7,50.9,29.82,North,1,0.0,0.0,81,0.00,CLR,OVC,0.00,WeatherDisplay:10.37,2013-01-28 04:47:00,
2013-01-27 22:52:00,56.7,50.9,29.82,North,1,0.0,0.0,81,0.00,CLR,OVC,0.00,WeatherDisplay:10.37,2013-01-28 04:52:00,
2013-01-27 22:57:00,56.7,50.9,29.82,North,1,0.0,0.0,81,0.00,CLR,OVC,0.00,WeatherDisplay:10.37,2013-01-28 04:57:00,
2013-01-27 23:00:00,56.7,50.9,29.82,North,1,0.0,0.0,81,0.00,CLR,OVC,0.00,WeatherDisplay:10.37,2013-01-28 05:00:00,
2013-01-27 23:03:00,56.7,50.9,29.82,North,1,0.0,0.0,81,0.00,CLR,OVC,0.00,WeatherDisplay:10.37,2013-01-28 05:03:00,
2013-01-27 23:04:00,56.7,50.9,29.82,North,1,0.0,0.0,81,0.00,CLR,OVC,0.00,WeatherDisplay:10.37,2013-01-28 05:04:00,
2013-01-27 23:09:00,56.8,51.1,29.82,North,1,0.0,0.0,81,0.00,CLR,OVC,0.00,WeatherDisplay:10.37,2013-01-28 05:09:00,
2013-01-27 23:14:00,56.8,51.1,29.81,North,1,0.0,0.0,81,0.00,CLR,OVC,0.00,WeatherDisplay:10.37,2013-01-28 05:14:00,
2013-01-27 23:19:00,56.8,51.1,29.81,North,1,0.0,0.0,81,0.00,CLR,OVC,0.00,WeatherDisplay:10.37,2013-01-28 05:19:00,
2013-01-27 23:24:00,56.8,51.1,29.82,North,1,0.0,0.0,81,0.00,CLR,OVC,0.00,WeatherDisplay:10.37,2013-01-28 05:24:00,
2013-01-27 23:29:00,56.8,51.1,29.81,North,1,0.0,0.0,81,0.00,CLR,OVC,0.00,WeatherDisplay:10.37,2013-01-28 05:29:00,
2013-01-27 23:34:00,56.8,51.4,29.81,North,1,0.0,0.0,82,0.00,CLR,OVC,0.00,WeatherDisplay:10.37,2013-01-28 05:34:00,
2013-01-27 23:39:00,57.0,51.6,29.81,North,1,0.0,0.0,82,0.00,CLR,OVC,0.00,WeatherDisplay:10.37,2013-01-28 05:39:00,
2013-01-27 23:44:00,57.0,51.6,29.81,North,1,0.0,0.0,82,0.00,CLR,OVC,0.00,WeatherDisplay:10.37,2013-01-28 05:44:00,
2013-01-27 23:49:00,57.0,51.6,29.81,North,1,0.0,0.0,82,0.00,CLR,OVC,0.00,WeatherDisplay:10.37,2013-01-28 05:49:00,
2013-01-27 23:54:00,57.0,51.6,29.81,North,1,0.0,0.0,82,0.00,CLR,OVC,0.00,WeatherDisplay:10.37,2013-01-28 05:54:00,
2013-01-27 23:59:00,57.0,51.6,29.81,North,1,0.0,0.0,82,0.00,CLR,OVC,0.00,WeatherDisplay:10.37,2013-01-28 05:59:00,